Flag for Australia Weather past 2 weeks in Broome, Western Australia, Australia

Now
83 °F

Overcast.


Feels Like: 89 °F
Forecast: 82 / 88 °F
Wind: 7 mph from West

Location: Broome Airport

Current Time: Feb 1, 2015 at 5:59:33 AM

Latest Report: Feb 1, 2015 at 3:00 AM


Visibility: N/A

Pressure: 29.78 "Hg

Humidity: 74%

Dew point: 74 °F

Location of BroomeLocation

Historic Weather in Broome — Graph

°F

Broome temperature yesterday

Maximum temperature yesterday: 89 °F (at 3:00 PM)
Minimum temperature yesterday: 80 °F (at 6:00 AM)
Average temperature yesterday: 85 °F

Past Weeks' High & Low Weather Summary

 TemperatureHumidityPressure
High92 °F (Jan 24, 11:00 AM)96% (Jan 19, 8:00 PM)29.93 "Hg (Jan 19, 8:00 PM)
Low73 °F (Jan 29, 6:00 AM)54% (Jan 31, 3:00 PM)29.63 "Hg (Jan 23, 3:00 PM)
Average86 °F73%29.75 "Hg
* Reported Jan 17 3:00 AM — Feb 1 3:00 AM, Broome, Weather by CustomWeather, © 2014

Note: Actual official high and low records may vary slightly from our data, if they occured in-between our weather recording intervals... More about our weather records

Advertising

Broome weather history for previous 24 hours

 ConditionsComfort  
Time TempWeatherWind HumidityBarometerVisibility
3:00 AM
Feb 1
83 °FOvercast.7 mph74%29.78 "HgN/A
2:00 AM83 °FWarm.7 mph73%29.78 "HgN/A
12:00 AM84 °FOvercast.9 mph69%29.80 "HgN/A
11:00 PM
Jan 31
84 °FWarm.8 mph71%29.80 "HgN/A
9:00 PM85 °FWarm.9 mph66%29.79 "HgN/A
8:00 PM85 °FWarm.8 mph67%29.77 "HgN/A
6:00 PM87 °FWarm.10 mph61%29.73 "HgN/A
5:00 PM89 °FHot.12 mph55%29.72 "HgN/A
3:00 PM89 °FPassing clouds.10 mph54%29.73 "Hg25 mi
2:00 PM89 °FHot.12 mph55%29.74 "HgN/A
12:00 PM89 °FPassing clouds.12 mph55%29.78 "Hg25 mi
11:00 AM87 °FWarm.9 mph63%29.81 "HgN/A
9:00 AM85 °FPassing clouds.1 mph66%29.81 "Hg25 mi
8:00 AM83 °FWarm.10 mph80%29.82 "HgN/A
6:00 AM80 °FScattered clouds.13 mph84%29.80 "Hg25 mi
5:00 AM84 °FWarm.8 mph67%29.77 "HgN/A
Weather by CustomWeather, © 2014

See weather overviewHow to use our weather pages